Temp
11 11 12 12 12 12 12 13 13 12 12 12 12 12 12 12 12 12 12 13 13 14 14 14 14 15 15 16 18 20 20 20 20 20 20 20 19 19 19 19 20 20 20 21 22 22 22
10 11 12 11 11 12 12 12 12 12 12 12 12 12 12 12 12 12 12 13 13 13 14 14 15 15 15 15 20 20 20 20 20 20 20 20 21 21 21 20 20 21 21 20 22 22 22
9 11 11 11 11 11 12 12 12 12 12 12 12 12 12 12 12 12 13 13 13 13 14 14 15 15 16 20 20 20 21 21 21 21 22 21 21 20 21 19 21 21 19 20 21 21 21
9 11 11 11 11 11 11 12 12 12 12 12 12 12 12 12 12 13 13 13 13 14 14 14 15 15 17 20 20 20 21 21 22 21 22 22 22 22 22 22 21 19 17 18 20 20 20
8 10 10 10 10 11 11 12 12 12 12 12 12 12 13 13 13 13 13 14 14 14 14 15 15 15 18 20 20 21 21 21 22 22 22 23 23 22 21 17 16 15 17 19 20 19 20
9 10 10 10 10 11 11 12 12 12 12 12 12 12 13 13 13 13 14 14 14 14 14 14 15 16 20 20 21 21 21 21 22 22 23 23 22 16 15 15 16 18 19 17 18 19 18
9 10 10 10 10 10 11 12 12 12 12 12 12 13 13 14 14 14 14 14 14 14 15 18 18 19 19 20 20 21 21 21 22 22 18 19 16 17 17 18 19 19 17 17 18 19 16
9 9 10 10 11 10 12 12 12 12 12 12 12 13 14 14 15 15 15 15 16 15 16 18 18 18 19 20 20 21 21 21 21 18 19 16 17 19 17 17 18 17 17 18 18 17 15
9 9 10 10 10 11 12 12 12 12 12 12 13 14 14 14 15 15 15 16 16 16 16 19 20 19 20 20 20 20 21 21 19 19 18 16 19 19 17 16 17 16 17 17 18 16 15
9 9 9 10 10 11 11 12 12 13 13 13 14 14 15 15 15 15 16 16 16 17 12 17 19 20 20 20 20 20 21 21 19 17 16 17 17 17 17 17 16 17 18 18 18 15 14
9 9 9 10 10 11 11 12 12 13 13 13 14 15 15 15 15 16 16 16 17 17 11 18 19 20 20 20 20 20 20 21 19 17 17 17 17 17 17 18 18 17 17 17 17 14 14
9 9 9 9 10 11 11 13 13 13 13 14 15 15 15 15 15 16 17 17 17 11 13 18 19 19 19 19 19 20 20 20 19 16 16 17 18 18 18 18 18 18 16 14 12 12 11
9 9 9 9 10 10 11 13 13 13 13 14 14 15 15 16 16 17 17 17 10 10 18 17 17 18 18 18 18 17 15 14 15 15 15 16 16 16 18 18 17 15 13 10 11 10 11
9 9 9 10 10 11 11 13 13 13 14 14 14 15 15 16 16 17 17 12 14 15 17 18 18 17 17 17 16 16 16 14 14 15 13 13 14 16 16 17 17 15 14 9 15 11 11
9 9 9 9 10 11 11 13 13 14 14 14 14 15 15 16 16 17 17 10 12 13 18 17 17 17 17 18 16 15 14 14 15 15 15 14 15 17 17 17 16 16 13 13 9 8 8
9 8 9 9 10 10 12 13 13 14 14 14 15 15 15 16 16 17 11 11 14 17 18 17 17 16 16 17 16 15 15 15 15 14 15 15 15 16 17 17 16 15 14 12 8 11 12
9 9 9 9 10 10 12 12 13 14 14 14 15 15 15 16 16 16 10 11 15 18 18 18 17 16 16 16 15 15 14 14 13 15 14 15 13 14 15 15 15 14 13 11 10 7 8
9 9 9 9 10 11 12 12 13 14 14 14 15 10 15 15 13 8 10 14 17 18 19 17 17 17 16 15 14 14 14 14 13 14 14 13 10 9 15 14 15 15 14 11 7 11 5
9 9 9 9 10 11 11 12 13 14 14 14 14 13 13 15 8 5 12 16 17 17 17 18 17 16 16 13 13 13 13 13 14 13 13 13 11 9 12 12 13 15 14 9 8 6 9
9 9 9 10 10 11 11 12 13 14 14 14 14 8 12 14 13 11 14 16 16 17 17 17 17 16 15 14 12 12 13 13 13 13 13 12 10 10 10 12 12 14 14 11 10 6 8
9 9 9 10 10 11 12 12 13 14 14 14 14 11 13 8 10 11 13 15 16 16 17 17 17 16 15 14 13 12 12 13 13 13 12 10 11 11 10 10 12 13 13 11 11 10 9
9 9 10 10 10 11 11 12 13 13 13 14 14 12 13 11 15 12 11 14 14 16 16 16 15 14 15 13 13 11 11 12 13 12 11 8 8 10 11 9 9 11 11 9 9 10 9
9 9 9 10 10 11 11 12 13 13 13 14 14 14 16 8 9 10 10 13 14 15 14 15 13 11 11 12 12 12 13 13 12 11 9 8 5 6 7 6 7 7 8 10 11 11 11
9 9 10 10 11 11 11 12 13 13 14 14 14 14 15 6 9 10 13 15 13 14 13 13 14 11 12 13 13 13 12 10 10 8 10 6 3 1 4 3 6 10 10 11 11 10 9
9 9 10 11 11 11 11 12 13 13 13 15 14 15 16 4 10 13 12 11 12 12 11 11 12 13 14 13 6 9 5 7 7 6 6 7 2 2 3 4 7 11 10 9 10 9 7
9 9 10 11 11 11 11 12 13 13 14 14 14 15 16 12 10 13 11 12 9 8 9 11 11 12 13 4 3 5 7 9 8 9 6 5 2 3 2 3 5 9 10 12 11 7 8
9 9 10 10 11 11 11 12 13 14 14 15 15 16 16 14 12 13 11 11 12 9 7 11 12 12 12 -0 1 3 6 8 7 6 4 3 -0 2 -3 1 4 7 10 12 9 7 8
9 10 10 10 11 11 12 12 13 14 14 14 15 15 16 14 12 13 14 14 13 13 7 11 9 10 4 4 2 2 1 4 5 7 5 4 4 2 2 1 6 9 9 8 9 11 12
9 10 10 10 11 11 12 12 13 14 14 15 15 15 15 15 12 12 13 14 15 15 14 11 12 10 10 3 0 1 1 4 3 6 7 6 6 5 5 6 9 10 11 12 13 13 11
Height
1503 1505 1507 1510 1509 1510 1510 1508 1508 1506 1504 1502 1500 1499 1497 1496 1495 1495 1495 1496 1497 1498 1499 1501 1502 1503 1504 1504 1500 1499 1498 1498 1499 1500 1501 1503 1504 1505 1505 1504 1504 1507 1504 1501 1500 1503 1507
1499 1501 1501 1505 1505 1506 1506 1504 1504 1502 1500 1499 1497 1495 1494 1493 1493 1492 1494 1494 1496 1497 1499 1500 1502 1502 1503 1503 1498 1498 1498 1498 1498 1499 1499 1500 1498 1500 1501 1502 1504 1502 1504 1504 1504 1505 1508
1493 1496 1497 1499 1501 1502 1502 1501 1500 1498 1497 1495 1494 1492 1491 1491 1491 1491 1492 1494 1495 1497 1499 1501 1501 1501 1501 1497 1497 1498 1497 1497 1497 1497 1497 1496 1496 1499 1497 1498 1499 1502 1509 1507 1508 1509 1509
1491 1491 1493 1495 1496 1498 1498 1497 1497 1495 1495 1493 1491 1489 1489 1489 1490 1490 1492 1493 1495 1498 1499 1500 1500 1501 1497 1496 1496 1496 1496 1497 1496 1497 1497 1496 1495 1496 1495 1496 1500 1506 1512 1522 1512 1511 1513
1486 1486 1489 1491 1491 1494 1494 1494 1494 1491 1492 1492 1488 1487 1488 1488 1489 1490 1492 1494 1497 1499 1499 1499 1501 1500 1496 1495 1495 1495 1496 1496 1496 1497 1497 1496 1495 1496 1498 1506 1519 1519 1527 1521 1517 1512 1513
1481 1482 1485 1485 1488 1489 1490 1492 1490 1490 1490 1489 1487 1486 1487 1488 1489 1491 1493 1496 1498 1499 1499 1500 1500 1503 1495 1494 1494 1495 1496 1496 1495 1495 1496 1495 1496 1502 1507 1513 1532 1520 1519 1523 1522 1515 1515
1475 1477 1480 1481 1483 1486 1486 1487 1488 1487 1488 1487 1486 1486 1487 1488 1489 1492 1495 1498 1502 1502 1498 1495 1496 1494 1493 1494 1494 1494 1495 1495 1494 1494 1499 1496 1505 1513 1509 1506 1507 1509 1518 1522 1518 1512 1518
1469 1472 1475 1476 1478 1483 1482 1484 1485 1485 1486 1486 1485 1486 1487 1489 1491 1493 1496 1497 1498 1500 1496 1494 1494 1494 1493 1493 1494 1494 1495 1496 1495 1501 1498 1505 1512 1506 1505 1505 1508 1513 1520 1520 1514 1514 1521
1463 1466 1470 1471 1475 1479 1479 1482 1482 1483 1485 1485 1485 1487 1489 1490 1492 1494 1496 1497 1497 1496 1496 1493 1492 1493 1493 1493 1494 1494 1495 1496 1497 1499 1502 1511 1508 1503 1506 1512 1515 1521 1522 1520 1519 1521 1525
1456 1461 1465 1466 1471 1474 1476 1479 1478 1481 1484 1484 1485 1487 1489 1490 1495 1495 1496 1496 1496 1496 1506 1497 1493 1493 1493 1491 1494 1494 1495 1496 1497 1505 1506 1511 1507 1508 1513 1517 1518 1523 1517 1517 1519 1530 1546
1448 1456 1458 1462 1466 1470 1473 1475 1476 1479 1482 1483 1485 1487 1489 1492 1493 1495 1496 1495 1496 1497 1534 1495 1492 1492 1491 1492 1494 1494 1495 1495 1499 1503 1507 1517 1514 1515 1518 1518 1516 1522 1518 1521 1523 1534 1538
1443 1449 1453 1457 1462 1466 1470 1471 1474 1477 1480 1482 1484 1487 1489 1491 1493 1495 1494 1494 1496 1514 1521 1495 1490 1491 1493 1493 1494 1495 1496 1497 1500 1505 1508 1513 1513 1514 1516 1515 1515 1516 1522 1529 1535 1541 1560
1437 1444 1448 1452 1457 1463 1466 1467 1471 1474 1478 1480 1483 1487 1489 1490 1493 1494 1494 1495 1515 1528 1493 1498 1495 1493 1495 1497 1498 1498 1504 1508 1512 1522 1524 1519 1519 1515 1514 1517 1516 1520 1531 1560 1561 1566 1562
1431 1438 1444 1448 1453 1458 1463 1464 1468 1472 1476 1479 1483 1486 1487 1490 1492 1493 1494 1499 1514 1498 1494 1489 1491 1495 1499 1498 1503 1504 1508 1516 1511 1514 1527 1534 1539 1521 1517 1519 1522 1524 1530 1557 1547 1567 1561
1425 1433 1440 1444 1449 1454 1459 1460 1465 1469 1474 1478 1482 1485 1487 1489 1492 1493 1496 1517 1508 1500 1488 1490 1494 1500 1501 1499 1503 1508 1513 1516 1514 1513 1523 1531 1531 1519 1518 1518 1520 1523 1538 1531 1555 1566 1569
1418 1428 1435 1440 1445 1451 1454 1457 1462 1466 1472 1476 1481 1484 1487 1489 1491 1494 1499 1508 1496 1487 1486 1489 1500 1499 1506 1503 1506 1510 1514 1514 1514 1514 1513 1520 1533 1522 1519 1519 1519 1521 1526 1545 1556 1563 1559
1413 1424 1430 1437 1442 1447 1450 1454 1459 1464 1470 1475 1480 1483 1485 1488 1491 1494 1507 1502 1492 1486 1484 1489 1495 1500 1500 1505 1507 1513 1517 1517 1516 1515 1513 1517 1527 1533 1524 1528 1529 1530 1533 1540 1548 1563 1570
1409 1419 1428 1433 1440 1443 1446 1451 1455 1461 1467 1474 1478 1482 1483 1486 1492 1497 1500 1492 1488 1487 1485 1487 1489 1492 1498 1502 1511 1513 1517 1516 1516 1515 1518 1520 1532 1547 1532 1526 1524 1524 1529 1537 1563 1555 1573
1407 1416 1423 1431 1436 1440 1443 1447 1452 1459 1465 1471 1475 1479 1482 1484 1499 1502 1493 1489 1487 1487 1488 1488 1490 1491 1494 1503 1515 1515 1516 1517 1515 1516 1519 1520 1534 1555 1545 1536 1527 1527 1530 1539 1547 1558 1558
1405 1413 1421 1428 1433 1436 1440 1444 1450 1456 1463 1470 1474 1481 1482 1484 1486 1489 1491 1490 1490 1487 1489 1489 1491 1492 1496 1505 1508 1516 1517 1517 1516 1516 1518 1519 1530 1536 1548 1536 1533 1533 1531 1537 1542 1565 1556
1403 1411 1419 1426 1430 1433 1437 1442 1447 1454 1460 1467 1470 1471 1473 1485 1486 1487 1488 1489 1490 1492 1490 1490 1492 1493 1498 1508 1511 1516 1516 1517 1517 1517 1518 1521 1533 1532 1536 1535 1532 1531 1532 1537 1540 1541 1548
1402 1411 1418 1424 1428 1431 1435 1440 1445 1451 1458 1465 1467 1467 1471 1475 1479 1485 1487 1489 1490 1490 1491 1493 1496 1498 1498 1505 1506 1515 1514 1516 1516 1518 1521 1525 1540 1534 1538 1539 1539 1535 1533 1536 1537 1535 1537
1402 1411 1416 1422 1426 1430 1434 1438 1443 1449 1457 1462 1465 1465 1466 1477 1480 1485 1487 1486 1487 1488 1492 1492 1494 1500 1505 1504 1503 1505 1509 1510 1513 1517 1524 1530 1540 1548 1550 1549 1543 1550 1531 1529 1525 1525 1526
1403 1410 1415 1421 1424 1430 1433 1437 1442 1448 1456 1461 1463 1464 1465 1480 1478 1480 1480 1482 1485 1487 1491 1494 1495 1498 1508 1505 1507 1510 1512 1516 1517 1520 1521 1533 1545 1558 1561 1558 1564 1523 1519 1519 1521 1521 1522
1404 1410 1415 1420 1425 1430 1433 1437 1441 1448 1455 1460 1461 1462 1462 1477 1475 1476 1479 1482 1486 1488 1493 1495 1497 1498 1502 1505 1517 1524 1533 1528 1528 1528 1526 1525 1542 1559 1565 1561 1539 1518 1517 1519 1520 1521 1518
1405 1410 1415 1420 1426 1431 1434 1437 1442 1448 1455 1460 1460 1460 1461 1465 1476 1474 1478 1481 1487 1492 1497 1500 1500 1503 1504 1510 1524 1538 1538 1529 1533 1530 1531 1532 1535 1548 1565 1565 1559 1519 1512 1512 1513 1529 1512
1406 1411 1416 1422 1428 1432 1435 1437 1442 1448 1454 1456 1458 1459 1461 1465 1472 1474 1476 1480 1483 1488 1497 1501 1503 1505 1505 1519 1539 1541 1535 1528 1535 1537 1543 1544 1553 1555 1578 1567 1537 1512 1510 1512 1528 1523 1507
1407 1412 1417 1425 1429 1433 1435 1439 1443 1447 1453 1457 1458 1459 1462 1465 1471 1472 1474 1477 1481 1484 1494 1498 1505 1506 1509 1522 1531 1536 1542 1530 1530 1526 1530 1535 1542 1550 1555 1563 1535 1504 1510 1516 1505 1501 1503
1409 1414 1421 1427 1431 1434 1437 1440 1444 1448 1452 1455 1457 1460 1462 1465 1472 1473 1474 1476 1479 1482 1484 1492 1494 1496 1499 1513 1523 1526 1534 1529 1530 1531 1520 1528 1518 1525 1525 1518 1501 1499 1496 1497 1497 1498 1500
Wind_Speed
22 23 21 20 19 17 17 16 18 19 21 21 20 21 18 15 13 11 11 11 12 11 10 8 6 6 6 5 9 2 5 2 4 8 11 14 14 9 3 5 3 4 3 3 14 12 16
22 23 21 20 18 17 17 15 17 18 19 20 19 17 15 13 11 9 10 9 9 10 8 7 6 7 6 4 1 4 6 4 6 10 10 15 13 11 7 8 7 10 3 8 7 10 8
23 24 21 19 17 17 16 15 15 16 17 17 16 14 12 11 9 8 8 8 8 8 7 7 7 7 8 10 4 4 4 4 4 2 2 5 8 16 5 5 8 15 6 5 3 1 2
27 24 21 19 18 16 16 14 14 13 14 15 13 11 9 8 8 8 8 8 8 8 7 6 6 5 8 5 8 2 2 2 4 2 0 2 2 4 1 11 7 5 5 4 4 2 1
29 24 22 20 18 16 15 13 12 10 12 13 10 8 8 8 8 8 9 10 8 6 4 4 5 3 8 5 6 2 1 3 7 3 2 5 4 5 5 6 5 6 3 2 2 5 2
29 25 23 21 18 16 14 12 10 10 10 10 7 6 8 9 10 12 13 10 7 4 5 5 2 2 8 3 5 5 4 1 3 1 5 4 4 4 3 4 4 2 1 1 5 5 4
31 27 25 22 19 17 13 11 11 9 8 7 5 6 9 12 15 14 13 10 5 2 10 6 3 5 3 3 7 8 5 2 1 6 4 6 6 2 4 2 3 2 2 3 2 2 6
32 29 26 23 19 17 13 13 11 8 8 7 8 11 13 16 16 14 12 3 5 3 4 15 9 11 13 8 3 6 4 2 3 3 1 7 3 0 8 6 6 6 6 1 2 7 8
33 31 28 24 20 17 14 15 11 9 10 9 11 14 14 14 14 14 9 5 3 4 1 3 9 9 4 5 3 3 2 2 3 3 3 5 2 5 7 7 7 4 3 3 4 5 7
34 32 29 25 21 18 17 16 13 12 12 12 14 15 14 13 10 7 3 2 3 6 4 4 2 3 3 6 3 4 3 2 5 4 7 6 6 5 6 5 3 3 1 2 3 4 4
35 33 31 27 23 20 18 17 15 16 14 14 15 16 15 13 6 5 2 3 2 1 4 3 3 4 4 3 3 2 4 2 4 5 6 2 3 5 6 1 2 3 2 3 1 3 4
37 35 32 28 24 21 20 19 18 18 17 16 17 16 15 8 7 4 1 0 1 6 2 1 3 2 3 2 1 4 4 7 7 6 7 3 2 3 2 1 1 2 4 6 4 3 2
39 37 33 29 25 23 21 21 21 20 19 18 18 16 14 9 6 2 2 2 5 4 1 4 4 3 2 1 4 4 4 6 4 5 3 5 4 5 3 2 3 5 5 2 3 3 4
40 38 34 29 25 24 22 23 22 22 20 18 18 17 13 8 4 1 1 5 1 4 4 2 4 3 4 3 4 4 3 3 6 4 3 4 3 4 5 2 2 3 4 4 5 3 3
42 38 34 29 26 24 23 24 24 24 22 20 21 16 13 9 4 2 2 3 5 5 4 6 4 4 2 2 5 5 3 2 2 3 4 4 1 3 1 2 3 1 4 3 6 3 3
43 39 34 29 26 24 24 24 26 26 25 22 20 16 12 9 5 3 4 5 3 3 2 4 5 4 5 4 4 4 2 3 2 5 2 5 4 1 3 2 5 5 4 3 4 2 1
44 39 33 29 26 24 24 24 27 28 27 23 20 10 13 11 7 3 3 5 4 3 2 3 5 4 5 6 4 2 1 3 3 4 6 3 3 4 2 3 1 4 2 6 5 3 4
44 38 33 29 27 24 23 25 29 30 29 25 18 3 15 14 4 2 3 4 3 2 6 4 4 3 5 4 4 3 4 1 4 0 2 2 5 3 1 5 3 1 3 4 4 2 1
43 38 32 29 26 23 23 26 30 32 31 28 13 5 13 16 4 2 4 3 1 2 3 3 2 2 2 5 6 2 3 1 3 3 3 2 2 3 6 6 5 3 3 5 5 3 4
41 36 31 29 25 22 23 27 31 33 33 26 10 3 4 7 4 7 3 2 1 5 3 3 3 5 4 5 6 4 3 2 2 4 4 3 3 5 6 4 3 3 2 4 5 3 3
40 35 32 28 24 22 23 28 32 35 35 24 7 4 9 4 3 4 5 3 4 2 1 2 3 2 4 4 3 4 2 2 3 2 3 4 3 2 3 4 2 1 3 5 6 5 5
38 34 31 27 23 21 23 28 33 36 36 21 8 5 6 7 18 6 4 5 6 2 4 1 5 3 2 6 6 8 6 3 3 3 3 4 1 1 1 4 5 3 5 7 6 4 7
36 33 30 26 23 20 22 27 31 36 36 19 6 5 8 2 5 5 5 6 8 6 5 2 10 5 4 2 7 12 6 8 7 5 3 3 4 3 3 4 4 6 8 8 5 4 6
36 32 29 26 23 20 21 25 29 34 37 18 8 7 5 2 3 6 7 3 6 5 7 4 9 6 13 29 26 22 26 22 19 12 4 5 4 2 2 3 2 6 3 4 6 4 3
34 31 28 26 22 20 20 24 27 32 30 18 8 6 6 2 2 3 8 7 15 14 5 4 2 8 25 6 5 5 5 6 5 7 7 3 5 3 4 3 5 4 5 7 7 7 7
32 30 27 25 22 20 20 24 27 27 27 19 10 6 3 14 3 9 7 11 5 4 4 4 14 27 5 5 4 4 4 4 1 1 6 5 6 4 2 4 6 6 3 8 6 5 15
31 28 27 24 22 21 20 23 25 27 23 16 10 9 6 8 4 11 4 9 10 7 4 4 6 3 3 3 3 3 3 3 4 5 3 2 3 5 2 4 8 6 6 8 5 7 21
30 27 25 22 21 20 20 21 22 23 22 18 14 11 7 7 6 6 11 12 11 10 5 10 5 1 4 4 3 4 3 5 2 4 6 7 6 4 3 1 8 12 5 8 6 8 20
28 26 23 21 20 18 19 19 19 19 17 14 15 12 9 6 8 11 10 9 12 11 13 18 6 6 8 4 1 3 2 2 2 3 2 3 7 5 9 6 4 20 9 22 9 10 22
Wind_Direction
246 242 245 253 256 261 269 277 286 291 293 291 291 286 282 276 270 260 254 241 236 230 229 223 211 217 240 243 259 352 219 204 187 215 219 212 211 199 204 182 273 178 216 94 128 128 135
248 241 242 249 253 259 267 275 283 291 293 290 285 282 276 267 257 246 240 230 226 224 214 200 193 221 225 252 104 3 264 272 282 227 229 219 227 233 273 188 180 175 172 113 106 128 138
248 243 241 245 249 255 264 273 284 289 289 287 283 279 269 260 244 230 222 214 214 204 185 186 209 224 234 224 316 349 286 312 286 178 202 244 235 221 213 136 165 138 86 55 54 81 88
249 239 237 239 242 251 261 272 280 285 285 285 280 273 260 240 223 200 198 187 182 173 179 199 220 222 249 257 283 270 270 283 233 166 172 285 239 203 276 111 40 58 44 95 288 157 35
247 236 233 233 237 245 257 268 272 275 279 277 274 260 237 217 190 175 167 153 157 170 181 200 195 222 263 298 267 204 235 180 184 178 169 144 122 60 64 80 36 9 161 164 330 214 111
242 232 228 226 233 238 250 259 258 259 268 268 260 234 211 189 160 151 144 145 156 166 184 164 192 276 263 268 196 214 238 183 171 201 118 90 77 85 57 84 172 206 196 164 213 214 72
237 227 222 222 226 235 241 242 241 244 250 248 224 188 172 158 146 146 144 138 129 201 203 202 227 225 21 327 217 237 241 195 67 66 44 24 64 71 55 105 171 105 101 167 272 20 80
232 224 219 217 219 230 230 229 226 220 222 209 178 161 152 150 145 152 156 130 68 341 290 240 252 261 273 275 271 171 163 103 50 89 352 25 83 220 90 57 76 77 117 105 99 35 84
229 219 215 212 216 221 220 220 205 200 199 181 167 155 152 150 154 166 166 39 348 1 252 255 242 256 259 208 131 81 93 116 116 74 53 124 309 62 82 43 74 35 85 14 116 55 37
224 216 211 209 212 214 215 210 191 189 188 178 165 158 156 154 155 168 178 42 356 357 66 294 207 229 193 128 83 86 61 114 46 131 126 72 339 89 71 81 92 63 325 54 45 89 178
216 212 207 206 207 208 212 200 187 185 182 175 165 161 160 148 142 161 116 338 331 329 76 241 217 161 133 85 131 78 40 59 121 158 90 221 81 73 65 82 110 183 141 128 108 83 88
212 207 205 203 204 205 208 192 185 181 178 170 165 168 164 146 141 136 339 356 149 44 224 237 153 136 72 50 74 95 66 74 94 74 50 102 129 79 187 1 121 115 94 42 50 83 58
209 204 202 200 200 205 204 188 184 179 174 170 165 168 161 150 140 127 29 99 44 123 138 172 158 131 119 68 45 71 42 25 93 83 35 14 357 332 43 87 11 71 73 11 10 11 206
204 200 201 197 199 201 202 187 183 178 171 166 165 164 157 143 139 137 38 54 195 224 200 180 116 114 120 121 13 42 79 55 28 86 111 117 358 4 337 98 193 52 135 148 190 188 239
199 197 198 195 198 198 199 186 182 177 172 162 163 160 154 153 129 159 121 78 218 222 181 125 67 97 104 73 117 84 62 97 39 35 123 129 347 323 313 358 134 156 50 151 106 13 70
192 194 193 193 196 198 193 185 182 177 173 164 163 158 158 155 165 147 83 229 238 242 142 102 138 150 169 143 87 78 78 343 13 41 170 183 101 358 307 56 26 113 141 52 9 118 187
186 190 188 191 193 195 189 186 182 178 174 169 165 158 172 165 170 134 162 231 262 310 112 118 165 164 178 159 106 84 113 355 2 336 56 106 96 275 22 19 221 2 39 62 107 111 155
183 185 186 186 192 191 187 186 181 178 173 170 169 106 168 166 94 72 176 214 306 342 46 55 99 84 146 117 81 100 139 104 338 306 74 36 121 96 207 292 293 163 124 113 106 209 36
180 181 181 186 187 187 185 185 180 178 173 169 158 116 166 172 138 275 271 276 50 62 40 41 76 72 92 120 99 91 96 26 23 73 138 146 36 69 354 351 351 104 62 92 105 90 197
177 176 178 182 183 182 183 181 178 178 174 170 160 100 135 175 144 150 187 234 95 49 61 83 107 84 85 61 29 136 125 28 49 100 101 121 98 149 183 201 175 152 118 106 113 123 193
172 172 177 177 178 177 179 179 177 177 176 172 181 193 161 187 218 167 157 181 136 120 87 63 46 72 123 107 73 108 128 130 46 72 77 87 114 88 53 23 52 147 177 173 191 189 174
169 171 172 172 172 170 175 177 178 178 179 178 172 152 148 156 167 143 143 205 155 179 140 84 109 28 93 146 174 191 141 165 188 40 69 16 159 89 103 5 8 279 250 242 233 221 255
165 170 167 167 165 164 170 175 179 179 179 180 193 157 165 134 121 111 199 183 200 138 46 90 145 101 50 336 119 108 107 124 134 129 109 78 117 90 254 346 338 333 218 193 198 198 176
164 165 161 162 158 161 164 171 176 180 182 185 200 174 145 203 144 179 165 161 166 183 143 108 122 99 132 111 98 86 75 71 68 43 95 115 91 72 180 21 7 244 312 230 197 214 195
162 159 157 157 155 156 156 163 169 177 179 191 209 190 169 120 157 95 122 121 100 89 74 79 62 138 142 105 64 49 353 21 359 29 20 78 118 99 139 198 300 282 206 164 171 252 194
158 154 153 152 154 151 149 154 163 169 170 202 216 177 130 123 237 127 128 152 133 108 34 75 112 147 155 78 74 135 195 202 248 85 52 57 71 108 125 150 218 240 247 145 98 298 191
154 152 150 152 152 149 146 149 155 164 169 197 180 151 129 105 118 151 145 165 137 105 106 136 152 142 99 71 84 139 225 182 179 179 198 44 15 160 144 229 286 233 184 130 114 235 178
152 151 149 151 152 147 145 146 152 158 170 179 168 160 150 109 112 143 147 154 152 146 135 158 84 328 54 73 123 197 154 220 132 186 181 171 156 198 102 58 276 179 122 168 204 185 185
151 151 151 152 150 148 142 145 150 158 166 174 166 164 153 122 118 116 132 161 187 177 150 164 169 161 160 92 127 127 156 167 148 233 113 240 190 184 186 214 253 192 223 214 211 217 205